Dewpoint
-13 -6 -3 -0 -0 -1 -0 4 -2 3 2 2 2 3 5 7 8 10 8 8 7 2 -1 3 3 3 0 -4 -6 -5 -7 -8 -8 -8 -6 -6 -6 -6 -7 -7 -7 -6 -6 -5 -4 -4 -3 -2 -1
-9 -5 -2 -0 1 6 5 3 4 2 1 3 5 5 7 8 7 8 8 7 8 3 -6 1 2 2 0 -2 -6 -6 -5 -6 -7 -7 -7 -7 -6 -6 -6 -7 -7 -6 -6 -6 -6 -5 -5 -4 -2
-3 -3 -2 0 3 6 5 3 3 2 1 2 2 4 5 8 8 6 7 8 8 4 -7 -2 2 2 1 -2 -7 -7 -6 -5 -7 -7 -7 -7 -6 -6 -6 -7 -7 -6 -6 -6 -5 -5 -5 -5 -4
-3 -2 -1 0 2 1 3 0 2 2 1 1 5 8 6 8 8 8 9 9 7 3 -6 -3 -0 1 1 -3 -6 -7 -7 -7 -7 -8 -7 -7 -7 -6 -6 -6 -7 -7 -6 -6 -6 -5 -5 -4 -4
-3 -3 1 2 2 -0 -0 -0 1 2 0 5 7 8 9 7 7 8 9 10 8 5 -3 -5 -3 -4 -5 -8 -8 -8 -8 -8 -7 -7 -7 -6 -6 -5 -5 -6 -6 -6 -6 -6 -6 -5 -5 -5 -4
-3 -1 2 3 2 1 -2 -5 -4 -0 6 8 7 8 9 8 0 2 9 10 10 10 4 -6 -7 -7 -7 -6 -6 -7 -7 -8 -8 -7 -8 -7 -7 -6 -6 -6 -6 -5 -5 -5 -5 -5 -5 -4 -4
-4 -1 1 2 2 1 -2 -5 -4 -2 4 7 5 9 10 10 2 3 10 11 11 11 10 -3 -3 -2 -2 -1 -1 -1 -2 -4 -6 -7 -7 -6 -6 -6 -5 -5 -5 -6 -5 -5 -5 -5 -4 -3 -3
-4 -2 0 -0 -2 -0 -3 -3 -4 -4 -0 5 5 9 10 9 3 8 10 11 11 11 8 0 -1 1 1 2 2 2 2 1 -2 -4 -5 -5 -5 -5 -5 -5 -5 -5 -5 -5 -4 -4 -3 -3 -2
-3 -2 -0 -2 -3 -3 -4 -3 -4 -4 -4 1 4 5 3 9 7 10 12 11 11 11 7 0 0 1 3 4 4 5 5 4 3 0 -2 -3 -4 -4 -4 -4 -4 -4 -4 -4 -3 -3 -3 -2 -1
-4 -3 -3 -5 -5 -4 -5 -4 -4 -4 -4 1 4 5 6 9 8 8 10 6 7 6 8 4 2 2 2 3 4 5 5 5 5 5 4 2 -1 -2 -2 -3 -3 -3 -3 -3 -2 -2 -2 -1 -1
-2 -1 -4 -5 -4 -4 -5 -4 -4 -4 -4 -4 4 8 9 9 9 8 7 3 -4 -1 4 6 6 4 3 3 4 5 5 6 6 6 6 5 4 3 2 0 -1 -1 -1 -1 -1 -1 -1 -0 0
-1 -2 -4 -3 -2 -3 -4 -4 -4 -5 -5 -6 -4 6 9 9 8 9 7 4 4 5 4 -1 2 5 4 3 3 4 5 5 5 6 6 6 6 5 5 4 2 1 1 1 2 2 2 1 1
-1 -1 -1 -2 -2 -3 -3 -4 -4 -5 -5 -5 -5 4 9 9 7 7 5 6 5 6 7 8 3 -2 1 3 3 4 4 5 5 6 7 7 7 6 6 6 5 4 3 3 3 4 6 6 3
-1 -1 -1 -2 -2 -2 -3 -4 -5 -6 -6 -6 -6 1 8 8 8 8 9 8 8 6 6 6 7 3 -3 -5 1 3 4 4 5 6 7 8 8 7 7 7 7 6 5 4 5 5 7 8 9
-1 -0 -1 -2 -2 -2 -3 -3 -4 -6 -6 -3 -4 -4 -1 3 7 9 9 9 8 7 6 7 7 8 5 -4 -7 -5 0 3 5 5 7 8 8 7 7 8 8 7 7 5 6 8 9 10 10
0 -0 1 -2 -3 -3 -4 -1 -4 -6 -4 -3 -4 -5 -5 -5 -1 5 7 9 8 8 8 7 7 7 7 5 1 -4 -8 -6 -2 2 5 6 9 9 10 9 7 8 8 7 7 8 9 10 12
0 2 1 0 -3 -4 -3 -2 -3 -6 -3 -3 -4 -3 -4 -3 -3 -3 -2 1 5 7 8 8 7 7 7 7 7 4 2 2 -4 -4 -1 6 10 11 12 12 12 11 11 11 10 10 11 10 11
2 1 0 0 -3 -4 -2 -0 -2 -2 -3 -3 -5 -7 -5 -3 -4 -4 -3 -2 -3 -1 4 6 7 6 7 8 10 11 9 6 4 3 4 6 12 13 13 14 13 13 13 13 13 12 12 12 12
1 1 1 -0 -2 -3 -3 -3 -4 -6 -7 -7 -7 -8 -8 -8 -5 -4 -4 -3 -2 -3 -2 2 6 6 8 9 9 11 10 9 9 7 7 10 11 14 14 14 14 14 14 14 14 13 13 12 13
1 2 1 -1 -3 -3 -2 -3 -5 -7 -7 -8 -8 -8 -8 -8 -8 -6 -6 -3 -3 -2 -2 -2 1 6 7 8 8 10 10 10 11 11 13 13 13 13 14 14 14 14 14 14 14 13 13 13 13
-0 0 -0 -0 -2 -3 -2 -2 -4 -6 -7 -8 -8 -8 -8 -9 -7 -5 -4 -3 -2 -2 -2 -2 -1 1 4 8 10 10 11 12 12 12 12 12 13 14 14 14 14 14 14 14 14 14 14 13 13
-0 -3 -2 -2 -1 0 -3 1 -3 -5 -6 -7 -7 -8 -9 -8 -2 -3 -2 -1 -1 -1 0 1 2 3 5 8 9 10 9 9 10 12 13 13 13 12 12 13 13 13 14 14 13 13 13 13 13
-1 -1 -1 -1 0 -0 -1 -0 -2 -5 -3 -4 -6 -7 -8 -6 -1 -2 -1 0 -0 0 2 5 8 7 8 9 9 10 10 10 12 13 14 14 14 14 14 13 14 14 14 14 14 14 14 14 13
-3 -5 -5 -5 -2 2 0 -0 -1 -2 -4 -5 -6 -7 -8 -9 -3 1 2 2 2 1 2 3 4 8 10 10 10 10 11 12 14 14 15 15 14 14 14 15 15 14 14 14 14 14 14 14 14
-1 1 3 1 1 2 -1 0 -1 -3 -4 -4 -5 -6 -6 -7 -7 4 3 4 2 -1 -3 -2 2 4 9 12 12 11 12 14 15 15 16 15 15 15 15 15 14 14 14 15 14 14 14 14 14
2 0 4 4 3 1 -1 2 -1 -3 -3 -4 -4 -6 -6 -3 -3 6 5 4 -0 3 4 2 3 7 8 13 14 14 15 16 16 15 14 14 15 15 15 15 15 15 15 14 14 14 14 14 14
3 4 0 3 3 5 2 -1 -2 -2 -3 -3 -3 -1 1 6 6 8 6 3 0 6 9 9 10 12 14 15 15 15 15 15 14 13 13 14 14 13 13 12 11 12 13 13 13 13 13 12 13
1 0 4 4 10 10 5 3 3 2 2 3 3 2 1 -1 1 7 6 4 3 6 8 10 10 11 12 13 13 12 12 12 13 13 12 10 6 4 3 3 3 4 6 8 11 11 11 12 13
2 5 6 6 8 12 10 6 3 4 3 4 3 2 -0 -1 0 4 9 9 8 7 7 10 10 10 10 10 10 9 9 8 7 4 2 1 1 1 1 1 1 3 5 7 9 10 11 11 11
-2 3 6 10 9 9 9 8 2 2 2 2 1 1 -0 -0 3 7 9 9 8 8 8 7 6 6 6 6 6 5 4 2 1 0 0 0 0 -0 -1 -1 -0 0 2 2 2 2 2 3 4
Wind_Speed
3 9 12 5 4 5 3 3 3 4 3 13 19 14 10 8 5 4 14 24 25 26 29 30 28 26 23 21 19 18 18 18 17 17 16 15 15 14 13 13 13 12 12 12 12 11 11 11 11
4 7 7 2 4 2 3 3 5 5 6 23 27 21 7 3 9 10 22 24 21 26 28 29 28 26 24 21 19 18 17 16 16 15 14 13 13 12 11 11 11 10 10 9 9 9 9 9 10
5 8 3 3 2 1 2 5 6 8 10 7 7 15 6 5 10 16 16 23 27 25 27 28 28 25 24 21 19 18 17 15 14 14 13 12 11 10 9 9 9 9 9 9 8 8 8 8 9
7 3 2 4 4 7 5 7 11 5 4 11 16 5 6 12 18 17 19 22 28 25 27 28 27 25 23 20 18 17 16 15 14 13 12 11 11 10 9 8 8 7 7 6 6 7 7 7 8
7 2 3 3 6 6 6 18 13 6 3 13 13 4 5 10 12 14 20 23 23 23 25 26 26 25 22 21 19 17 16 15 14 13 12 11 10 10 9 9 8 8 7 7 7 6 6 6 6
3 2 4 3 4 7 8 8 6 2 15 16 13 10 6 11 11 12 16 20 19 15 22 26 26 24 22 21 19 17 15 14 14 14 13 12 11 10 10 9 9 9 8 8 8 8 7 7 6
3 3 3 4 6 5 4 2 5 5 15 8 23 5 14 17 12 14 18 18 19 14 17 27 26 25 23 21 19 18 17 15 14 13 13 13 12 12 11 11 10 10 10 10 10 10 9 9 8
3 4 3 3 8 6 11 15 5 1 1 15 17 8 8 23 17 19 20 19 17 15 15 28 27 25 25 24 22 21 19 17 16 14 14 14 14 13 13 13 12 12 12 12 12 12 11 11 10
3 3 2 3 6 8 18 8 15 16 10 9 16 13 12 28 23 24 24 22 20 17 18 28 27 26 25 23 23 21 19 17 17 16 16 16 15 15 14 14 13 13 13 13 14 14 14 14 13
3 3 6 7 3 5 15 9 12 9 18 5 2 9 20 30 28 28 29 25 23 22 24 26 28 28 27 26 24 23 22 22 21 20 18 17 17 16 15 15 15 15 16 16 16 17 17 17 16
1 4 7 10 12 10 8 21 12 3 7 4 2 18 30 31 30 28 26 22 15 17 22 26 26 27 30 29 28 28 26 24 24 23 21 20 20 19 19 19 19 19 19 20 20 19 19 19 19
4 14 6 12 15 9 5 11 15 12 21 24 8 14 34 33 32 31 27 23 21 19 18 20 24 27 30 32 31 30 29 28 27 26 24 24 24 23 23 22 22 22 21 21 21 22 22 22 22
4 5 18 24 23 20 15 11 10 25 28 26 17 17 30 35 34 31 26 23 20 19 19 22 23 26 28 32 33 33 33 32 30 29 28 28 28 27 26 26 25 26 24 23 23 23 21 22 24
12 21 23 24 27 23 8 17 4 33 28 26 29 18 29 35 39 35 34 31 30 21 22 23 26 25 27 28 32 34 33 33 32 31 31 30 31 31 30 30 30 29 27 26 24 24 23 21 21
20 9 13 18 16 11 12 11 10 34 28 20 15 23 26 33 38 42 38 38 35 32 28 31 32 32 30 27 24 28 30 31 32 32 29 27 25 26 27 29 32 32 30 27 26 26 26 26 25
7 4 4 3 7 13 8 17 14 23 18 19 14 15 18 20 32 41 40 44 40 42 42 37 38 38 35 34 31 29 25 26 28 29 28 27 27 25 23 25 26 26 29 29 28 28 29 31 31
3 5 6 12 5 6 3 9 9 23 20 22 20 19 21 24 26 28 32 37 44 45 50 48 45 44 41 37 36 33 31 29 27 28 28 29 27 27 27 27 25 25 26 29 32 32 33 34 35
6 5 6 6 9 9 9 12 11 20 20 28 24 21 24 31 33 32 32 30 27 31 46 49 48 45 46 43 41 38 35 32 30 31 32 32 31 30 29 29 29 28 30 31 33 35 36 37 38
6 14 14 18 22 6 12 9 12 22 18 20 27 26 28 30 33 33 35 33 33 30 24 45 49 49 53 49 47 44 41 36 34 33 33 34 34 34 34 31 31 33 33 35 36 37 38 40 39
12 16 17 18 16 8 11 17 11 10 11 22 28 30 34 36 33 23 23 36 33 29 26 26 39 46 51 53 51 46 40 36 35 34 37 36 36 36 34 37 37 37 37 37 38 38 40 42 42
17 18 16 18 17 17 6 19 7 8 18 27 25 28 32 39 26 21 22 27 31 31 26 26 26 36 43 53 52 46 40 37 34 31 30 34 39 40 38 36 36 37 38 41 41 41 42 42 43
20 17 18 19 17 16 7 18 18 6 9 9 26 27 31 24 22 19 20 23 23 22 22 22 23 26 35 48 51 48 43 36 29 19 18 18 22 25 27 28 30 32 37 41 42 43 45 42 43
17 8 12 14 13 8 21 3 13 2 7 10 17 26 27 19 22 24 25 23 21 18 16 18 25 27 35 39 45 44 39 30 22 16 11 10 11 15 18 22 27 31 36 40 41 45 50 48 42
14 16 14 11 9 12 21 6 18 11 6 7 18 36 21 27 25 28 26 22 19 19 20 19 20 25 31 33 39 37 30 21 16 13 13 13 15 17 19 17 19 23 27 31 32 36 41 44 45
12 11 12 10 11 11 13 6 17 4 7 13 13 28 42 35 31 35 29 23 16 16 17 15 16 23 23 26 30 30 23 16 13 11 10 12 16 17 20 22 21 23 25 26 28 30 35 40 44
3 4 3 15 10 12 14 15 15 11 12 24 25 30 46 41 34 40 31 23 21 20 19 17 15 19 21 22 25 24 19 18 16 14 15 13 13 14 15 15 16 18 22 26 29 32 33 33 36
4 10 6 6 11 12 11 22 20 16 14 23 19 28 35 17 30 31 27 27 26 24 22 21 21 21 21 23 25 25 23 18 16 13 11 12 14 16 19 21 21 23 24 26 30 30 32 34 36
6 4 5 1 3 7 8 13 14 14 10 11 18 27 35 36 30 19 27 30 30 26 25 23 22 24 24 24 22 20 16 13 12 10 11 11 9 9 10 12 15 17 19 21 22 25 27 27 24
7 4 2 2 1 3 3 7 5 7 11 10 8 22 28 39 36 32 29 29 27 26 25 25 22 20 19 17 16 14 13 11 8 6 4 1 4 7 10 12 14 16 17 17 17 20 22 22 22
7 8 5 1 1 5 4 10 10 14 16 12 19 24 28 38 14 12 20 20 20 20 19 18 19 19 16 16 15 15 15 13 9 6 3 1 6 10 14 16 17 17 17 17 18 19 20 21 21
Wind_Direction
312 312 317 344 47 63 278 313 269 211 66 90 103 105 123 133 160 206 150 165 176 180 177 173 173 169 164 159 158 156 155 155 155 154 154 151 148 145 143 142 141 141 142 139 137 137 135 132 129
5 322 335 52 80 53 279 254 222 123 112 109 103 103 81 69 138 147 154 168 180 181 180 176 179 173 170 167 165 163 162 162 163 161 160 159 156 153 151 149 148 149 148 146 146 143 139 135 138
347 323 338 84 126 171 264 259 228 164 162 158 121 95 86 116 162 155 170 178 184 184 182 180 181 178 175 173 171 170 169 168 169 170 171 169 167 165 164 163 161 161 162 163 161 159 156 150 148
338 338 75 85 267 263 236 274 259 158 179 122 116 61 94 162 158 169 171 178 182 179 182 183 182 182 181 178 176 175 175 174 175 177 179 181 180 179 180 179 178 181 184 183 184 183 180 170 163
329 346 36 348 283 269 255 229 220 176 221 123 123 131 99 152 182 183 185 179 182 179 182 183 183 184 183 181 180 181 183 183 182 183 188 192 195 196 195 196 198 202 202 202 208 212 209 202 189
305 50 36 305 253 285 302 206 102 180 106 122 114 124 145 169 180 176 185 176 181 191 188 187 184 184 184 184 185 185 187 192 193 192 195 200 205 208 210 213 216 218 218 222 223 226 228 228 224
132 81 221 264 292 297 278 322 112 119 148 175 143 112 150 170 187 166 180 177 177 194 205 192 190 187 187 189 189 191 192 198 201 202 204 208 212 216 220 223 226 231 233 235 237 239 239 235 236
221 107 291 327 350 352 344 338 356 103 277 162 153 161 178 180 176 174 174 180 191 193 204 196 195 198 194 194 196 198 199 203 206 208 213 217 220 223 228 231 234 235 239 242 245 244 245 247 248
238 67 286 270 328 290 321 359 345 348 351 194 203 187 184 169 172 178 181 186 192 196 194 199 203 203 206 206 204 204 209 212 216 218 221 225 229 233 237 242 244 247 248 249 252 256 256 254 252
94 115 247 210 232 294 314 327 332 355 337 23 92 204 173 171 178 182 188 187 195 197 195 200 207 211 212 214 216 218 217 218 221 224 228 235 239 241 244 248 251 253 254 255 255 257 260 261 262
249 207 232 263 264 287 292 312 324 27 308 267 263 172 174 179 188 193 196 200 184 196 202 203 206 212 218 219 220 222 225 228 231 231 232 236 240 242 245 247 249 253 255 256 258 260 262 265 266
284 294 256 293 307 309 268 297 307 297 285 294 295 217 184 188 195 200 206 204 202 204 209 211 213 214 218 222 224 228 231 232 234 239 239 239 241 243 245 248 249 252 255 258 259 261 264 264 265
221 298 321 312 309 293 294 276 267 280 280 291 284 217 206 201 208 209 218 214 206 212 216 218 215 218 219 221 223 227 230 233 237 240 242 244 247 247 248 249 250 252 254 255 256 259 264 265 262
301 317 313 313 301 294 278 280 301 276 280 285 285 216 216 214 213 216 214 218 217 221 225 224 225 219 218 223 227 227 231 233 236 239 243 247 247 248 251 253 253 254 253 254 256 257 260 265 265
319 321 314 289 283 277 286 289 226 269 281 294 297 268 225 226 228 218 222 219 221 222 228 232 230 225 216 217 226 231 231 234 236 237 239 242 246 248 250 252 254 256 256 256 257 258 258 259 260
332 333 322 315 5 284 153 265 261 259 264 272 279 271 262 251 227 232 233 226 230 230 228 233 234 233 229 222 219 223 227 231 234 235 235 238 245 246 247 251 253 259 257 257 257 258 261 262 262
336 260 266 306 174 281 147 256 260 266 267 262 263 263 240 253 254 246 237 240 239 238 235 232 233 234 234 231 226 226 230 233 238 240 244 244 245 252 255 256 261 263 266 265 262 263 263 264 266
250 256 289 271 290 326 276 269 282 272 290 277 269 273 266 251 259 257 251 249 245 241 240 239 233 234 234 232 230 227 228 234 242 247 248 251 252 255 258 263 267 271 270 268 267 266 268 267 269
255 270 264 277 281 275 277 261 270 276 283 287 280 283 280 284 270 263 253 245 251 246 248 240 236 232 229 227 230 228 228 231 237 244 250 254 256 258 260 264 269 272 271 275 274 273 270 268 267
244 259 271 277 274 268 282 276 261 265 264 279 280 285 285 282 275 254 242 242 243 243 247 243 238 233 232 231 233 231 232 232 237 242 244 248 251 255 258 262 264 269 274 274 275 277 272 271 269
249 250 265 264 283 283 306 286 269 269 284 291 293 288 288 290 258 235 231 233 240 245 246 236 234 233 235 232 231 230 232 235 236 241 247 250 251 253 256 261 263 268 272 275 277 277 278 276 277
253 251 257 265 274 271 239 278 280 258 272 288 291 296 304 288 216 215 205 205 218 227 223 219 221 227 229 229 231 229 231 234 242 258 264 266 257 255 257 263 270 273 275 275 279 282 281 281 280
268 281 256 268 269 287 272 232 284 233 293 292 293 289 296 290 225 212 207 203 207 217 215 210 219 225 226 227 229 228 231 237 246 263 275 279 276 272 273 272 273 275 276 278 280 282 278 280 280
291 287 280 275 271 261 264 185 271 259 222 261 269 283 284 273 252 217 205 202 214 225 230 222 215 221 232 229 227 228 232 237 245 259 262 269 270 272 271 276 277 282 282 283 284 286 284 283 282
295 271 283 278 263 260 267 229 246 284 224 248 271 285 292 284 261 212 201 196 201 203 204 213 209 208 217 226 227 226 224 233 240 242 246 263 266 264 262 270 276 277 277 281 281 281 283 285 284
360 353 259 279 283 294 298 260 264 263 259 273 279 298 290 297 237 200 195 193 189 176 168 170 182 183 195 202 209 207 212 209 207 225 251 254 262 270 272 274 284 288 287 286 286 286 288 289 289
272 238 222 264 261 281 273 281 292 282 280 274 3 357 1 331 198 187 184 185 180 174 162 167 169 158 165 176 189 194 191 205 223 232 242 255 270 277 281 284 283 282 280 282 284 288 288 290 291
194 259 303 261 284 248 230 247 253 291 344 346 351 342 341 333 325 213 203 191 180 173 165 162 159 158 160 169 177 181 188 202 216 231 251 269 288 299 302 303 299 296 292 288 286 286 288 293 295
340 337 23 108 204 281 287 263 48 343 318 311 335 332 341 334 321 224 231 170 167 171 166 161 160 158 158 166 172 186 190 195 184 168 158 208 295 301 310 316 315 311 308 305 300 299 296 294 302
263 324 80 261 276 218 172 276 304 290 278 312 331 334 332 327 285 184 166 150 149 153 150 152 161 168 161 157 157 152 149 147 147 142 131 16 338 334 325 319 313 308 309 314 314 315 318 320 317
Height
1523 1522 1522 1521 1532 1535 1539 1523 1512 1509 1503 1503 1502 1502 1506 1509 1514 1528 1514 1518 1523 1526 1529 1531 1533 1535 1537 1538 1540 1541 1542 1543 1544 1544 1545 1546 1547 1548 1548 1549 1549 1550 1550 1551 1551 1551 1552 1553 1553
1524 1523 1522 1522 1539 1546 1534 1511 1512 1501 1500 1504 1504 1503 1506 1512 1509 1511 1514 1516 1521 1525 1528 1530 1533 1534 1536 1538 1539 1541 1542 1544 1545 1545 1546 1546 1547 1548 1549 1550 1550 1551 1551 1552 1552 1553 1553 1554 1554
1524 1522 1522 1527 1540 1538 1532 1510 1504 1498 1499 1501 1504 1505 1507 1512 1511 1511 1514 1516 1519 1522 1526 1530 1533 1536 1536 1538 1539 1540 1542 1544 1545 1546 1547 1547 1548 1549 1550 1550 1551 1551 1552 1552 1553 1553 1554 1555 1555
1525 1524 1525 1535 1536 1523 1515 1507 1503 1498 1499 1499 1501 1508 1509 1510 1510 1512 1513 1515 1519 1521 1524 1528 1531 1534 1537 1539 1540 1541 1543 1543 1545 1546 1547 1548 1548 1549 1550 1551 1552 1552 1552 1553 1553 1554 1554 1555 1555
1525 1525 1533 1534 1531 1516 1505 1502 1502 1498 1497 1499 1499 1508 1510 1511 1511 1512 1512 1514 1518 1522 1524 1526 1530 1532 1535 1536 1538 1539 1541 1543 1544 1545 1546 1547 1549 1549 1550 1551 1552 1552 1552 1553 1553 1554 1555 1555 1555
1525 1526 1542 1546 1532 1512 1504 1497 1498 1499 1501 1501 1501 1505 1510 1509 1509 1510 1512 1514 1518 1520 1523 1526 1528 1530 1533 1535 1537 1539 1540 1542 1543 1544 1545 1547 1548 1549 1550 1551 1551 1552 1552 1552 1553 1553 1553 1554 1554
1525 1531 1539 1532 1524 1513 1504 1498 1497 1498 1501 1499 1499 1504 1509 1510 1509 1508 1512 1514 1516 1520 1523 1524 1527 1528 1530 1533 1535 1537 1539 1541 1542 1543 1544 1546 1547 1548 1549 1549 1550 1551 1551 1552 1552 1552 1552 1552 1552
1523 1526 1531 1529 1526 1518 1508 1502 1499 1497 1498 1499 1498 1501 1506 1506 1506 1508 1510 1515 1517 1517 1519 1522 1525 1529 1529 1530 1531 1533 1535 1538 1540 1542 1543 1544 1546 1547 1548 1548 1548 1549 1550 1550 1550 1550 1550 1550 1550
1522 1532 1539 1529 1524 1517 1507 1507 1502 1499 1499 1498 1497 1495 1494 1500 1505 1508 1510 1511 1514 1515 1516 1520 1522 1523 1527 1529 1529 1531 1534 1536 1538 1540 1541 1543 1544 1546 1546 1547 1547 1548 1548 1548 1548 1548 1548 1548 1547
1521 1535 1529 1517 1515 1513 1508 1507 1504 1502 1500 1498 1497 1495 1497 1499 1501 1502 1504 1504 1508 1510 1513 1515 1518 1521 1523 1525 1528 1529 1530 1531 1533 1536 1538 1541 1543 1544 1545 1545 1545 1546 1546 1546 1546 1546 1546 1546 1545
1520 1526 1515 1512 1511 1509 1508 1503 1502 1502 1500 1500 1498 1498 1498 1499 1502 1501 1502 1503 1502 1507 1510 1511 1513 1516 1519 1520 1523 1525 1527 1529 1531 1531 1533 1535 1537 1538 1539 1540 1541 1542 1542 1543 1543 1542 1542 1543 1543
1521 1513 1513 1510 1508 1506 1506 1503 1499 1497 1495 1494 1497 1497 1496 1497 1497 1498 1500 1499 1501 1502 1504 1507 1508 1509 1512 1515 1517 1520 1523 1524 1526 1529 1530 1530 1530 1532 1533 1534 1535 1536 1537 1538 1539 1539 1538 1538 1538
1515 1512 1510 1507 1504 1503 1502 1499 1498 1493 1491 1489 1492 1493 1493 1493 1493 1493 1494 1497 1497 1498 1499 1502 1504 1505 1506 1508 1511 1513 1515 1518 1521 1522 1524 1525 1527 1527 1528 1528 1528 1529 1531 1532 1533 1534 1534 1533 1533
1514 1511 1506 1502 1500 1499 1500 1495 1496 1484 1486 1486 1484 1487 1488 1487 1488 1488 1491 1492 1493 1493 1494 1495 1498 1499 1501 1502 1504 1507 1508 1511 1514 1516 1518 1520 1520 1521 1523 1524 1524 1524 1525 1527 1528 1528 1529 1529 1529
1513 1513 1505 1497 1496 1496 1497 1495 1490 1480 1480 1481 1475 1477 1482 1482 1483 1482 1481 1483 1485 1487 1488 1490 1492 1495 1494 1495 1498 1500 1503 1506 1508 1509 1512 1514 1516 1517 1518 1519 1520 1520 1521 1522 1522 1523 1524 1523 1523
1517 1514 1519 1495 1495 1491 1495 1496 1477 1474 1478 1476 1474 1473 1474 1474 1475 1476 1477 1477 1478 1480 1481 1483 1486 1488 1490 1491 1492 1493 1495 1498 1501 1504 1506 1508 1510 1512 1513 1515 1515 1516 1517 1517 1516 1517 1517 1518 1518
1522 1531 1520 1506 1494 1492 1493 1491 1474 1473 1473 1472 1470 1470 1468 1468 1468 1468 1469 1470 1470 1472 1473 1476 1478 1481 1484 1486 1488 1490 1493 1495 1496 1498 1499 1501 1504 1508 1510 1510 1512 1514 1514 1514 1514 1513 1513 1512 1512
1530 1526 1519 1515 1492 1492 1493 1489 1476 1471 1471 1468 1465 1464 1464 1463 1460 1461 1462 1462 1463 1464 1465 1465 1469 1472 1476 1481 1484 1487 1488 1491 1492 1493 1495 1496 1499 1502 1504 1505 1507 1509 1511 1509 1510 1510 1510 1510 1509
1519 1518 1517 1504 1490 1495 1491 1486 1477 1470 1468 1463 1460 1458 1456 1455 1454 1453 1454 1455 1457 1457 1458 1458 1460 1464 1468 1470 1473 1477 1479 1483 1487 1488 1490 1492 1494 1496 1498 1499 1502 1504 1504 1505 1505 1504 1505 1504 1506
1513 1514 1511 1497 1490 1491 1486 1478 1472 1466 1461 1457 1454 1451 1449 1448 1447 1446 1445 1447 1449 1450 1452 1453 1454 1456 1459 1462 1464 1470 1475 1478 1481 1484 1487 1489 1490 1491 1493 1495 1497 1498 1499 1499 1499 1498 1497 1496 1496
1505 1505 1505 1500 1488 1481 1484 1473 1470 1460 1455 1450 1448 1445 1443 1439 1438 1438 1438 1440 1442 1444 1445 1446 1448 1450 1453 1456 1460 1466 1472 1475 1478 1480 1482 1482 1485 1486 1488 1489 1491 1492 1493 1492 1492 1493 1490 1488 1489
1503 1491 1492 1491 1493 1499 1479 1487 1461 1459 1454 1449 1442 1441 1437 1434 1434 1433 1434 1434 1435 1437 1439 1441 1443 1445 1448 1451 1454 1458 1463 1469 1473 1476 1477 1479 1481 1482 1484 1485 1485 1485 1485 1484 1486 1485 1483 1483 1483
1493 1487 1488 1486 1488 1491 1477 1496 1456 1451 1454 1450 1441 1438 1437 1436 1435 1430 1430 1432 1432 1433 1434 1437 1440 1442 1443 1446 1450 1456 1461 1466 1473 1475 1473 1475 1476 1478 1479 1480 1481 1480 1479 1478 1477 1478 1476 1474 1474
1490 1485 1483 1482 1484 1496 1474 1487 1465 1455 1453 1445 1438 1431 1435 1435 1435 1429 1426 1427 1429 1430 1430 1433 1436 1439 1440 1443 1448 1454 1460 1465 1466 1470 1472 1472 1473 1474 1475 1475 1475 1475 1474 1472 1472 1471 1469 1468 1467
1485 1490 1498 1499 1493 1491 1467 1477 1455 1443 1442 1439 1436 1431 1425 1426 1425 1423 1419 1422 1425 1427 1426 1427 1430 1435 1438 1442 1447 1453 1458 1462 1464 1466 1468 1468 1468 1469 1469 1469 1468 1469 1467 1467 1466 1465 1463 1461 1459
1488 1490 1500 1503 1500 1487 1464 1465 1446 1436 1434 1434 1432 1432 1421 1409 1406 1412 1413 1417 1420 1423 1422 1423 1426 1429 1434 1438 1444 1449 1455 1456 1460 1460 1463 1464 1464 1464 1465 1465 1465 1464 1463 1462 1460 1457 1456 1454 1451
1486 1491 1481 1487 1487 1492 1476 1452 1438 1436 1434 1432 1437 1436 1425 1422 1407 1410 1410 1411 1414 1420 1420 1423 1425 1428 1432 1437 1443 1447 1451 1454 1455 1456 1458 1460 1461 1461 1461 1461 1460 1459 1457 1455 1454 1451 1449 1446 1443
1480 1477 1485 1482 1503 1498 1471 1466 1451 1446 1447 1445 1440 1436 1433 1429 1433 1417 1411 1413 1412 1417 1420 1423 1426 1429 1433 1438 1442 1445 1448 1450 1452 1453 1456 1457 1457 1458 1458 1457 1455 1453 1450 1447 1446 1444 1441 1439 1437
1492 1487 1489 1490 1497 1498 1497 1469 1442 1451 1448 1445 1441 1440 1437 1430 1423 1423 1433 1418 1417 1417 1420 1422 1426 1431 1434 1437 1440 1442 1444 1447 1450 1451 1453 1454 1456 1456 1454 1452 1450 1448 1445 1442 1439 1437 1435 1432 1430
1494 1497 1497 1502 1501 1496 1499 1481 1444 1449 1445 1440 1442 1441 1439 1434 1421 1419 1426 1426 1424 1425 1426 1427 1426 1428 1433 1436 1439 1443 1444 1446 1448 1450 1452 1453 1453 1451 1450 1448 1446 1445 1443 1439 1434 1432 1431 1427 1424